Regional Weather Roundup
Issued by NWS

Home | Current Version | Previous Version | Text Only | Print | Product List | Glossary On
Versions: 1 2 3 4 5 6 7 8 9 10 11 12 13 14 15 16 17 18 19 20 21 22 23 24 25 26 27 28 29 30 31 32 33 34 35 36 37 38 39 40 41 42 43 44 45 46 47 48 49 50
000
ASUS43 KLSX 220207
RWRMO

WEATHER SUMMARY FOR MISSOURI
NATIONAL WEATHER SERVICE SPRINGFIELD MO
900 PM CDT MON JUL 21 2014

NOTE: "FAIR" INDICATES FEW OR NO CLOUDS BELOW 12,000 FEET WITH NO
       SIGNIFICANT WEATHER AND/OR OBSTRUCTIONS TO VISIBILITY.
       CURRENT SKY AND/OR WEATHER CONDITIONS ARE NOT AVAILABLE FOR
       CHILLICOTHE AND FARMINGTON.

MOZ001>031-035>038-043-044-053-054-220300-
...NORTHERN AND WESTERN MISSOURI...

CITY           SKY/WX    TMP DP  RH WIND       PRES   REMARKS
KANSAS CTY INT MOCLDY    83  73  72 S12       29.95R
KANSAS C DTWN  CLEAR     88  74  63 S10       29.94R HX  96
LEE`S SUMMIT   CLEAR     84  74  71 S7        29.97S HX  91
ST JOSEPH      PTCLDY    84  73  69 S9        29.92R HX  90
CHILLICOTHE      N/A     84  75  74 S7        29.96R HX  92
KIRKSVILLE     CLEAR     76  71  85 SE7       30.00R

$$
MOZ066>068-077>081-088>096-101>105-220300-
...SOUTHWEST MISSOURI...

CITY           SKY/WX    TMP DP  RH WIND       PRES   REMARKS
SPRINGFIELD    CLEAR     79  67  66 SE8       30.03S
JOPLIN         PTCLDY    81  71  71 S5        30.01R

$$
MOZ032>034-039>042-045>050-055>058-069>072-220300-
...CENTRAL MISSOURI...

CITY           SKY/WX    TMP DP  RH WIND       PRES   REMARKS
COLUMBIA       CLEAR     80  69  69 SE6       30.01S
JEFFERSON CITY CLEAR     82  68  62 E5        30.00R
ROLLA          CLEAR     74  66  76 SE7       30.03F
SEDALIA        CLEAR     79  72  79 SE7       30.00S
WHITEMAN AFB   CLEAR     82  69  65 S7        29.98S
OSAGE BEACH    CLEAR     81  66  61 SE3       30.02R

$$
MOZ051-052-059>065-220300-
...EAST CENTRAL MISSOURI...

CITY           SKY/WX    TMP DP  RH WIND       PRES   REMARKS
ST LOUIS INTL  CLEAR     83  65  54 SE9       30.05R
SPIRIT OF STL  CLEAR     79  67  66 SE5       30.03R
ST CHARLES     CLEAR     76  68  76 SE7       30.03R

$$
MOZ072>076-082>087-097>100-106>115-220300-
...SOUTH CENTRAL AND SOUTHEAST MISSOURI...

CITY           SKY/WX    TMP DP  RH WIND       PRES   REMARKS
CAPE GIRARDEAU CLEAR     73  68  84 CALM      30.06S
FARMINGTON     CLEAR     73  66  78 SE5       30.09S
POPLAR BLUFF   CLEAR     72  67  84 CALM      30.05S
WEST PLAINS    CLEAR     74  66  76 SE5       30.08S

$$


USA.gov is the U.S. government's official web portal to all federal, state and local government web resources and services.